Time,TemperatureF,DewpointF,PressureIn,WindDirection,WindDirectionDegrees,WindSpeedMPH,WindSpeedGustMPH,Humidity,HourlyPrecipIn,Conditions,Clouds,dailyrainin,SoftwareType,DateUTC
2013-02-02 00:04:00,40.1,36.8,29.64,North,0,3.8,6.9,88,0.00,,,0.22,pywws,2013-02-02 00:04:00,
2013-02-02 00:09:00,40.3,36.7,29.65,North,0,2.2,5.4,87,0.00,,,0.00,pywws,2013-02-02 00:09:00,
2013-02-02 00:14:00,40.3,36.7,29.65,North,0,0.7,2.2,87,0.00,,,0.00,pywws,2013-02-02 00:14:00,
2013-02-02 00:19:00,40.5,36.9,29.65,NW,315,2.2,5.4,87,0.00,,,0.00,pywws,2013-02-02 00:19:00,
2013-02-02 00:24:00,40.5,36.6,29.66,NW,315,3.8,6.0,86,0.00,,,0.00,pywws,2013-02-02 00:24:00,
2013-02-02 00:34:00,40.6,36.8,29.66,North,0,3.8,8.3,86,0.00,,,0.00,pywws,2013-02-02 00:34:00,
2013-02-02 00:39:00,41.0,36.8,29.66,NW,315,5.4,10.7,85,0.00,,,0.00,pywws,2013-02-02 00:39:00,
2013-02-02 00:44:00,41.0,36.5,29.66,West,270,3.1,6.9,84,0.00,,,0.00,pywws,2013-02-02 00:44:00,
2013-02-02 00:49:00,41.2,36.7,29.66,North,0,2.2,5.4,84,0.00,,,0.00,pywws,2013-02-02 00:49:00,
2013-02-02 00:54:00,41.2,36.7,29.67,NW,315,4.5,10.7,84,0.00,,,0.00,pywws,2013-02-02 00:54:00,
2013-02-02 01:04:00,41.7,37.2,29.67,NW,315,6.9,10.7,84,0.00,,,0.00,pywws,2013-02-02 01:04:00,
2013-02-02 01:09:00,41.2,36.4,29.68,North,-999,1.6,3.1,83,0.00,,,0.00,pywws,2013-02-02 01:09:00,
2013-02-02 01:14:00,41.4,36.6,29.68,NNE,22,3.8,6.9,83,0.00,,,0.00,pywws,2013-02-02 01:14:00,
2013-02-02 01:19:00,41.5,36.8,29.68,North,0,4.5,9.8,83,0.00,,,0.00,pywws,2013-02-02 01:19:00,
2013-02-02 01:24:00,41.4,36.3,29.68,North,0,5.4,12.1,82,0.00,,,0.00,pywws,2013-02-02 01:24:00,
2013-02-02 01:34:00,41.4,36.3,29.69,West,270,3.8,10.7,82,0.00,,,0.00,pywws,2013-02-02 01:34:00,
2013-02-02 01:39:00,41.4,35.7,29.69,North,0,2.2,9.2,80,0.00,,,0.00,pywws,2013-02-02 01:39:00,
2013-02-02 01:44:00,41.4,35.7,29.70,North,0,1.6,5.4,80,0.00,,,0.00,pywws,2013-02-02 01:44:00,
2013-02-02 01:49:00,41.4,35.7,29.70,North,0,3.1,8.3,80,0.00,,,0.00,pywws,2013-02-02 01:49:00,
2013-02-02 01:54:00,41.4,35.7,29.70,North,0,2.2,4.5,80,0.00,,,0.00,pywws,2013-02-02 01:54:00,
2013-02-02 02:04:00,41.2,35.5,29.70,NW,315,4.5,10.7,80,0.00,,,0.00,pywws,2013-02-02 02:04:00,
2013-02-02 02:09:00,41.7,35.4,29.71,North,0,6.9,12.1,78,0.00,,,0.00,pywws,2013-02-02 02:09:00,
2013-02-02 02:14:00,41.5,35.5,29.71,NW,315,2.2,6.9,79,0.00,,,0.00,pywws,2013-02-02 02:14:00,
2013-02-02 02:19:00,41.5,35.2,29.72,NW,315,3.1,6.0,78,0.00,,,0.00,pywws,2013-02-02 02:19:00,
2013-02-02 02:24:00,41.5,35.2,29.72,North,0,6.9,15.2,78,0.00,,,0.00,pywws,2013-02-02 02:24:00,
2013-02-02 02:34:00,41.5,35.2,29.72,North,0,3.8,7.6,78,0.00,,,0.00,pywws,2013-02-02 02:34:00,
2013-02-02 02:39:00,41.7,35.4,29.73,WNW,292,8.3,13.0,78,0.00,,,0.00,pywws,2013-02-02 02:39:00,
2013-02-02 02:44:00,41.4,35.0,29.74,North,0,3.8,9.2,78,0.00,,,0.00,pywws,2013-02-02 02:44:00,
2013-02-02 02:49:00,41.5,34.9,29.74,NE,45,4.5,13.6,77,0.00,,,0.00,pywws,2013-02-02 02:49:00,
2013-02-02 02:54:00,41.5,35.2,29.75,NE,45,4.5,12.1,78,0.00,,,0.00,pywws,2013-02-02 02:54:00,
2013-02-02 03:04:00,41.2,34.5,29.75,North,0,7.6,11.4,77,0.00,,,0.00,pywws,2013-02-02 03:04:00,
2013-02-02 03:09:00,41.0,34.4,29.75,North,0,3.8,9.2,77,0.00,,,0.00,pywws,2013-02-02 03:09:00,
2013-02-02 03:14:00,41.2,34.5,29.76,NE,45,3.1,6.9,77,0.00,,,0.00,pywws,2013-02-02 03:14:00,
2013-02-02 03:19:00,41.0,34.4,29.77,North,0,3.8,6.9,77,0.00,,,0.00,pywws,2013-02-02 03:19:00,
2013-02-02 03:24:00,40.8,33.9,29.77,NW,315,5.4,10.7,76,0.00,,,0.00,pywws,2013-02-02 03:24:00,
2013-02-02 03:34:00,41.2,34.2,29.77,North,0,6.9,14.5,76,0.00,,,0.00,pywws,2013-02-02 03:34:00,
2013-02-02 03:39:00,40.6,33.7,29.78,NW,315,4.5,10.7,76,0.00,,,0.00,pywws,2013-02-02 03:39:00,
2013-02-02 03:44:00,46.0,38.9,29.78,West,270,4.5,12.1,76,0.00,,,0.00,pywws,2013-02-02 03:44:00,
2013-02-02 03:49:00,40.3,33.3,29.78,North,0,4.5,7.6,76,0.00,,,0.00,pywws,2013-02-02 03:49:00,
2013-02-02 03:54:00,40.1,33.2,29.79,North,-999,3.8,7.6,76,0.00,,,0.00,pywws,2013-02-02 03:54:00,
2013-02-02 04:04:00,42.6,35.6,29.79,NE,45,3.8,10.7,76,0.00,,,0.00,pywws,2013-02-02 04:04:00,
2013-02-02 04:09:00,39.4,32.8,29.80,NW,315,3.8,9.8,77,0.00,,,0.00,pywws,2013-02-02 04:09:00,
2013-02-02 04:14:00,39.2,32.6,29.80,NW,315,3.1,6.9,77,0.00,,,0.00,pywws,2013-02-02 04:14:00,
2013-02-02 04:19:00,39.0,32.4,29.81,NW,315,4.5,9.8,77,0.00,,,0.00,pywws,2013-02-02 04:19:00,
2013-02-02 04:24:00,39.2,32.6,29.81,NW,315,3.1,7.6,77,0.00,,,0.00,pywws,2013-02-02 04:24:00,
2013-02-02 04:34:00,38.8,32.3,29.81,NW,315,0.7,2.2,77,0.00,,,0.00,pywws,2013-02-02 04:34:00,
2013-02-02 04:39:00,38.7,32.1,29.82,North,0,3.1,9.8,77,0.00,,,0.00,pywws,2013-02-02 04:39:00,
2013-02-02 04:44:00,38.7,32.1,29.83,NW,315,5.4,9.8,77,0.00,,,0.00,pywws,2013-02-02 04:44:00,
2013-02-02 04:49:00,38.5,31.9,29.82,NW,315,7.6,14.5,77,0.00,,,0.00,pywws,2013-02-02 04:49:00,
2013-02-02 04:54:00,38.5,31.9,29.83,North,0,4.5,9.8,77,0.00,,,0.00,pywws,2013-02-02 04:54:00,
2013-02-02 05:04:00,38.5,31.9,29.83,North,0,4.5,9.2,77,0.00,,,0.00,pywws,2013-02-02 05:04:00,
2013-02-02 05:09:00,38.3,31.7,29.84,North,0,6.9,13.0,77,0.00,,,0.00,pywws,2013-02-02 05:09:00,
2013-02-02 05:14:00,38.5,31.9,29.84,WNW,292,3.1,8.3,77,0.00,,,0.00,pywws,2013-02-02 05:14:00,
2013-02-02 05:19:00,37.6,31.0,29.85,North,0,3.8,10.7,77,0.00,,,0.00,pywws,2013-02-02 05:19:00,
2013-02-02 05:24:00,38.1,31.9,29.85,NE,45,4.5,7.6,78,0.00,,,0.00,pywws,2013-02-02 05:24:00,
2013-02-02 05:34:00,37.8,31.5,29.85,North,0,5.4,9.8,78,0.00,,,0.00,pywws,2013-02-02 05:34:00,
2013-02-02 05:39:00,37.6,31.4,29.86,NW,315,3.1,6.0,78,0.00,,,0.00,pywws,2013-02-02 05:39:00,
2013-02-02 05:44:00,37.6,31.4,29.86,NW,315,4.5,11.4,78,0.00,,,0.00,pywws,2013-02-02 05:44:00,
2013-02-02 05:49:00,37.2,31.0,29.87,West,270,4.5,14.5,78,0.00,,,0.00,pywws,2013-02-02 05:49:00,
2013-02-02 05:54:00,37.8,31.5,29.87,NW,315,2.2,6.0,78,0.00,,,0.00,pywws,2013-02-02 05:54:00,
2013-02-02 06:04:00,37.4,31.5,29.87,NW,315,6.9,12.1,79,0.00,,,0.00,pywws,2013-02-02 06:04:00,
2013-02-02 06:09:00,37.2,31.3,29.88,NE,45,3.1,6.9,79,0.00,,,0.00,pywws,2013-02-02 06:09:00,
2013-02-02 06:14:00,37.4,31.5,29.88,NW,315,4.5,8.3,79,0.00,,,0.00,pywws,2013-02-02 06:14:00,
2013-02-02 06:19:00,37.0,31.1,29.89,NW,315,3.8,8.3,79,0.00,,,0.00,pywws,2013-02-02 06:19:00,
2013-02-02 06:24:00,37.0,31.1,29.89,North,0,3.8,9.8,79,0.00,,,0.00,pywws,2013-02-02 06:24:00,
2013-02-02 06:34:00,37.0,31.1,29.89,NW,315,4.5,12.1,79,0.00,,,0.00,pywws,2013-02-02 06:34:00,
2013-02-02 06:39:00,36.7,30.8,29.90,North,0,4.5,9.2,79,0.00,,,0.00,pywws,2013-02-02 06:39:00,
2013-02-02 06:44:00,36.9,31.0,29.91,NW,315,4.5,11.4,79,0.00,,,0.00,pywws,2013-02-02 06:44:00,
2013-02-02 06:49:00,37.0,31.1,29.91,North,0,5.4,11.4,79,0.00,,,0.00,pywws,2013-02-02 06:49:00,
2013-02-02 06:54:00,36.7,30.8,29.91,NW,315,6.0,13.0,79,0.00,,,0.00,pywws,2013-02-02 06:54:00,
2013-02-02 07:04:00,36.5,30.6,29.92,NE,45,2.2,9.2,79,0.00,,,0.00,pywws,2013-02-02 07:04:00,
2013-02-02 07:09:00,36.9,31.0,29.92,WNW,292,3.8,7.6,79,0.00,,,0.00,pywws,2013-02-02 07:09:00,
2013-02-02 07:14:00,36.5,30.6,29.93,NW,315,6.0,13.0,79,0.00,,,0.00,pywws,2013-02-02 07:14:00,
2013-02-02 07:19:00,36.5,30.6,29.93,North,0,4.5,7.6,79,0.00,,,0.00,pywws,2013-02-02 07:19:00,
2013-02-02 07:24:00,36.5,30.6,29.94,NW,315,3.8,8.3,79,0.00,,,0.00,pywws,2013-02-02 07:24:00,
2013-02-02 07:34:00,36.5,30.6,29.94,NW,315,3.8,9.2,79,0.00,,,0.00,pywws,2013-02-02 07:34:00,
2013-02-02 07:39:00,36.1,30.3,29.95,NW,315,3.8,6.9,79,0.00,,,0.00,pywws,2013-02-02 07:39:00,
2013-02-02 07:44:00,36.1,30.6,29.96,NE,45,5.4,9.8,80,0.00,,,0.00,pywws,2013-02-02 07:44:00,
2013-02-02 07:49:00,36.1,30.3,29.96,NW,315,2.2,8.3,79,0.00,,,0.00,pywws,2013-02-02 07:49:00,
2013-02-02 07:54:00,36.1,30.6,29.96,North,0,6.0,9.8,80,0.00,,,0.00,pywws,2013-02-02 07:54:00,
2013-02-02 07:59:00,36.0,30.1,29.96,North,0,3.1,5.4,79,0.00,,,0.00,pywws,2013-02-02 07:59:00,
2013-02-02 08:04:00,36.0,30.1,29.96,NW,315,5.4,13.6,79,0.00,,,0.00,pywws,2013-02-02 08:04:00,
2013-02-02 08:09:00,36.1,30.3,29.97,North,0,3.8,6.9,79,0.00,,,0.00,pywws,2013-02-02 08:09:00,
2013-02-02 08:14:00,36.0,30.1,29.97,NNW,338,3.8,9.8,79,0.00,,,0.00,pywws,2013-02-02 08:14:00,
2013-02-02 08:19:00,36.3,30.4,29.98,NW,315,3.1,7.6,79,0.00,,,0.00,pywws,2013-02-02 08:19:00,
2013-02-02 08:24:00,36.3,30.4,29.98,NW,315,2.2,7.6,79,0.00,,,0.00,pywws,2013-02-02 08:24:00,
2013-02-02 08:34:00,36.1,30.3,29.98,NE,45,3.8,8.3,79,0.00,,,0.00,pywws,2013-02-02 08:34:00,
2013-02-02 08:39:00,36.3,30.4,29.99,North,0,1.6,3.8,79,0.00,,,0.00,pywws,2013-02-02 08:39:00,
2013-02-02 08:44:00,36.3,30.4,29.99,North,0,1.6,5.4,79,0.00,,,0.00,pywws,2013-02-02 08:44:00,
2013-02-02 08:49:00,36.5,30.6,29.99,North,0,2.2,5.4,79,0.00,,,0.00,pywws,2013-02-02 08:49:00,
2013-02-02 08:54:00,36.5,30.6,29.99,NW,315,4.5,9.2,79,0.00,,,0.00,pywws,2013-02-02 08:54:00,
2013-02-02 09:04:00,36.5,30.3,29.99,North,0,2.2,5.4,78,0.00,,,0.00,pywws,2013-02-02 09:04:00,
2013-02-02 09:09:00,37.0,30.5,30.00,NW,315,3.8,9.2,77,0.00,,,0.00,pywws,2013-02-02 09:09:00,
2013-02-02 09:14:00,37.2,30.7,30.00,NW,315,3.1,6.9,77,0.00,,,0.00,pywws,2013-02-02 09:14:00,
2013-02-02 09:19:00,37.2,30.4,30.01,North,0,3.8,9.8,76,0.00,,,0.00,pywws,2013-02-02 09:19:00,
2013-02-02 09:24:00,37.6,30.7,30.01,North,0,4.5,8.3,76,0.00,,,0.00,pywws,2013-02-02 09:24:00,
2013-02-02 09:34:00,37.6,30.7,30.01,NW,315,1.6,3.1,76,0.00,,,0.00,pywws,2013-02-02 09:34:00,
2013-02-02 09:39:00,38.1,30.9,30.01,South,180,0.7,2.2,75,0.00,,,0.00,pywws,2013-02-02 09:39:00,
2013-02-02 09:44:00,37.9,30.7,30.02,North,0,4.5,9.2,75,0.00,,,0.00,pywws,2013-02-02 09:44:00,
2013-02-02 09:49:00,38.1,30.6,30.02,WNW,292,7.6,13.0,74,0.00,,,0.00,pywws,2013-02-02 09:49:00,
2013-02-02 09:54:00,39.2,31.3,30.03,SE,135,2.2,5.4,73,0.00,,,0.00,pywws,2013-02-02 09:54:00,
2013-02-02 10:04:00,40.6,31.6,30.03,North,0,3.8,10.7,70,0.00,,,0.00,pywws,2013-02-02 10:04:00,
2013-02-02 10:09:00,41.4,31.6,30.03,NE,45,1.6,3.8,68,0.00,,,0.00,pywws,2013-02-02 10:09:00,
2013-02-02 10:14:00,41.9,31.8,30.04,North,0,2.2,7.6,67,0.00,,,0.00,pywws,2013-02-02 10:14:00,
2013-02-02 10:19:00,41.5,31.0,30.04,North,0,7.6,11.4,66,0.00,,,0.00,pywws,2013-02-02 10:19:00,
2013-02-02 10:24:00,41.7,31.2,30.05,North,0,3.1,6.9,66,0.00,,,0.00,pywws,2013-02-02 10:24:00,
2013-02-02 10:34:00,48.9,38.1,30.05,NW,315,3.8,9.2,66,0.00,,,0.00,pywws,2013-02-02 10:34:00,
2013-02-02 10:39:00,41.5,31.4,30.06,WNW,292,1.6,3.8,67,0.00,,,0.00,pywws,2013-02-02 10:39:00,
2013-02-02 10:44:00,42.8,31.9,30.06,NW,315,3.8,11.4,65,0.00,,,0.00,pywws,2013-02-02 10:44:00,
2013-02-02 10:49:00,43.3,31.6,30.06,North,0,4.5,9.8,63,0.00,,,0.00,pywws,2013-02-02 10:49:00,
2013-02-02 10:54:00,43.2,31.4,30.06,NW,315,5.4,10.7,63,0.00,,,0.00,pywws,2013-02-02 10:54:00,
2013-02-02 11:04:00,43.5,31.4,30.07,North,0,3.1,6.0,62,0.00,,,0.00,pywws,2013-02-02 11:04:00,
2013-02-02 11:09:00,43.0,31.3,30.07,NW,315,6.0,12.1,63,0.00,,,0.00,pywws,2013-02-02 11:09:00,
2013-02-02 11:14:00,41.9,30.2,30.08,WNW,292,8.3,15.2,63,0.00,,,0.00,pywws,2013-02-02 11:14:00,
2013-02-02 11:19:00,42.3,31.7,30.08,North,0,4.5,7.6,66,0.00,,,0.00,pywws,2013-02-02 11:19:00,
2013-02-02 11:24:00,41.7,30.8,30.08,North,0,4.5,13.6,65,0.00,,,0.00,pywws,2013-02-02 11:24:00,
2013-02-02 11:34:00,41.7,30.8,30.08,NW,315,3.1,5.4,65,0.00,,,0.00,pywws,2013-02-02 11:34:00,
2013-02-02 11:38:00,41.9,30.2,30.08,NE,45,3.8,12.1,63,0.00,,,0.00,pywws,2013-02-02 11:38:00,
2013-02-02 11:43:00,42.3,31.0,30.08,NW,315,4.5,7.6,64,0.00,,,0.00,pywws,2013-02-02 11:43:00,
2013-02-02 11:48:00,42.3,31.0,30.09,NW,315,1.6,3.8,64,0.00,,,0.00,pywws,2013-02-02 11:48:00,
2013-02-02 11:53:00,42.3,30.6,30.09,NW,315,6.9,12.1,63,0.00,,,0.00,pywws,2013-02-02 11:53:00,
2013-02-02 12:04:00,41.7,30.5,30.09,NW,315,4.5,9.8,64,0.00,,,0.00,pywws,2013-02-02 12:04:00,
2013-02-02 12:09:00,41.9,30.2,30.09,North,0,2.2,4.5,63,0.00,,,0.00,pywws,2013-02-02 12:09:00,
2013-02-02 12:14:00,42.3,29.8,30.09,North,0,4.5,11.4,61,0.00,,,0.00,pywws,2013-02-02 12:14:00,
2013-02-02 12:19:00,41.9,29.8,30.09,West,270,2.2,6.0,62,0.00,,,0.00,pywws,2013-02-02 12:19:00,
2013-02-02 12:24:00,42.1,30.0,30.09,NE,45,6.0,11.4,62,0.00,,,0.00,pywws,2013-02-02 12:24:00,
2013-02-02 12:34:00,41.5,29.5,30.11,NW,315,4.5,9.2,62,0.00,,,0.00,pywws,2013-02-02 12:34:00,
2013-02-02 12:38:00,41.4,29.3,30.11,NW,315,6.9,15.2,62,0.00,,,0.00,pywws,2013-02-02 12:38:00,
2013-02-02 12:43:00,41.2,29.6,30.11,NW,315,5.4,11.4,63,0.00,,,0.00,pywws,2013-02-02 12:43:00,
2013-02-02 12:48:00,41.0,29.4,30.11,NNW,338,4.5,7.6,63,0.00,,,0.00,pywws,2013-02-02 12:48:00,
2013-02-02 12:53:00,41.2,29.6,30.12,North,0,3.8,7.6,63,0.00,,,0.00,pywws,2013-02-02 12:53:00,
2013-02-02 13:04:00,41.0,29.0,30.11,NW,315,6.0,10.7,62,0.00,,,0.00,pywws,2013-02-02 13:04:00,
2013-02-02 13:09:00,41.4,29.3,30.11,NW,315,3.8,8.3,62,0.00,,,0.00,pywws,2013-02-02 13:09:00,
2013-02-02 13:14:00,41.9,29.4,30.12,West,270,3.1,7.6,61,0.00,,,0.00,pywws,2013-02-02 13:14:00,
2013-02-02 13:19:00,41.9,29.0,30.11,North,0,3.1,8.3,60,0.00,,,0.00,pywws,2013-02-02 13:19:00,
2013-02-02 13:24:00,42.1,29.2,30.13,West,270,5.4,9.2,60,0.00,,,0.00,pywws,2013-02-02 13:24:00,
2013-02-02 13:34:00,42.3,29.4,30.12,NW,315,3.1,6.9,60,0.00,,,0.00,pywws,2013-02-02 13:34:00,
2013-02-02 13:39:00,42.4,29.1,30.13,NW,315,3.1,6.0,59,0.00,,,0.00,pywws,2013-02-02 13:39:00,
2013-02-02 13:44:00,42.4,29.1,30.13,NW,315,3.1,8.3,59,0.00,,,0.00,pywws,2013-02-02 13:44:00,
2013-02-02 13:49:00,42.3,29.0,30.13,NW,315,5.4,9.2,59,0.00,,,0.00,pywws,2013-02-02 13:49:00,
2013-02-02 13:54:00,42.3,29.0,30.13,North,0,3.8,9.2,59,0.00,,,0.00,pywws,2013-02-02 13:54:00,
2013-02-02 14:04:00,41.7,28.5,30.14,North,0,6.9,13.0,59,0.00,,,0.00,pywws,2013-02-02 14:04:00,
2013-02-02 14:09:00,41.7,29.7,30.14,North,0,5.4,8.3,62,0.00,,,0.00,pywws,2013-02-02 14:09:00,
2013-02-02 14:14:00,41.7,29.7,30.14,NW,315,1.6,5.4,62,0.00,,,0.00,pywws,2013-02-02 14:14:00,
2013-02-02 14:19:00,41.4,29.7,30.14,NW,315,1.6,4.5,63,0.00,,,0.00,pywws,2013-02-02 14:19:00,
2013-02-02 14:24:00,44.2,32.1,30.14,WNW,292,5.4,13.0,62,0.00,,,0.00,pywws,2013-02-02 14:24:00,
2013-02-02 14:34:00,41.0,28.6,30.14,North,0,3.8,6.0,61,0.00,,,0.00,pywws,2013-02-02 14:34:00,
2013-02-02 14:39:00,41.4,28.9,30.14,NW,315,4.5,10.7,61,0.00,,,0.00,pywws,2013-02-02 14:39:00,
2013-02-02 14:44:00,41.2,28.8,30.14,North,0,1.6,4.5,61,0.00,,,0.00,pywws,2013-02-02 14:44:00,
2013-02-02 14:49:00,41.2,28.4,30.15,NW,315,6.0,10.7,60,0.00,,,0.00,pywws,2013-02-02 14:49:00,
2013-02-02 14:54:00,41.7,28.9,30.15,NE,45,3.1,5.4,60,0.00,,,0.00,pywws,2013-02-02 14:54:00,
2013-02-02 15:04:00,42.1,29.2,30.15,West,270,3.8,10.7,60,0.00,,,0.00,pywws,2013-02-02 15:04:00,
2013-02-02 15:09:00,41.4,28.1,30.16,North,0,2.2,6.0,59,0.00,,,0.00,pywws,2013-02-02 15:09:00,
2013-02-02 15:14:00,41.4,28.5,30.16,NE,45,2.2,5.4,60,0.00,,,0.00,pywws,2013-02-02 15:14:00,
2013-02-02 15:19:00,41.4,28.1,30.16,North,0,6.0,13.6,59,0.00,,,0.00,pywws,2013-02-02 15:19:00,
2013-02-02 15:24:00,41.4,28.1,30.16,North,0,3.8,9.8,59,0.00,,,0.00,pywws,2013-02-02 15:24:00,
2013-02-02 15:34:00,41.2,28.0,30.16,NE,45,4.5,7.6,59,0.00,,,0.00,pywws,2013-02-02 15:34:00,
2013-02-02 15:39:00,41.7,28.5,30.17,NW,315,1.6,6.9,59,0.00,,,0.00,pywws,2013-02-02 15:39:00,
2013-02-02 15:44:00,41.7,28.0,30.17,West,270,3.1,5.4,58,0.00,,,0.00,pywws,2013-02-02 15:44:00,
2013-02-02 15:49:00,41.5,27.9,30.17,North,0,2.2,5.4,58,0.00,,,0.00,pywws,2013-02-02 15:49:00,
2013-02-02 15:54:00,41.4,28.1,30.17,North,0,2.2,4.5,59,0.00,,,0.00,pywws,2013-02-02 15:54:00,
2013-02-02 16:04:00,41.4,28.1,30.18,NW,315,3.1,6.9,59,0.00,,,0.00,pywws,2013-02-02 16:04:00,
2013-02-02 16:09:00,41.2,28.0,30.19,NW,315,4.5,10.7,59,0.00,,,0.00,pywws,2013-02-02 16:09:00,
2013-02-02 16:14:00,41.0,27.8,30.19,North,0,2.2,7.6,59,0.00,,,0.00,pywws,2013-02-02 16:14:00,
2013-02-02 16:19:00,47.7,33.6,30.19,WNW,292,3.8,7.6,58,0.00,,,0.00,pywws,2013-02-02 16:19:00,
2013-02-02 16:24:00,40.8,27.2,30.19,NW,315,3.8,6.9,58,0.00,,,0.00,pywws,2013-02-02 16:24:00,
2013-02-02 16:34:00,40.8,27.6,30.19,NW,315,2.2,5.4,59,0.00,,,0.00,pywws,2013-02-02 16:34:00,
2013-02-02 16:39:00,40.6,27.4,30.19,North,-999,0.0,1.6,59,0.00,,,0.00,pywws,2013-02-02 16:39:00,
2013-02-02 16:44:00,40.6,27.9,30.19,NE,45,2.2,5.4,60,0.00,,,0.00,pywws,2013-02-02 16:44:00,
2013-02-02 16:49:00,40.6,27.9,30.20,North,0,0.7,3.1,60,0.00,,,0.00,pywws,2013-02-02 16:49:00,
2013-02-02 16:54:00,40.5,27.7,30.20,NW,315,1.6,4.5,60,0.00,,,0.00,pywws,2013-02-02 16:54:00,
2013-02-02 17:04:00,40.6,27.9,30.20,NE,45,1.6,6.0,60,0.00,,,0.00,pywws,2013-02-02 17:04:00,
2013-02-02 17:09:00,40.1,27.3,30.21,NNE,22,0.7,2.2,60,0.00,,,0.00,pywws,2013-02-02 17:09:00,
2013-02-02 17:14:00,40.1,26.5,30.21,North,0,3.1,7.6,58,0.00,,,0.00,pywws,2013-02-02 17:14:00,
2013-02-02 17:19:00,40.1,26.9,30.21,NW,315,1.6,3.8,59,0.00,,,0.00,pywws,2013-02-02 17:19:00,
2013-02-02 17:24:00,40.1,26.5,30.21,North,0,1.6,3.1,58,0.00,,,0.00,pywws,2013-02-02 17:24:00,
2013-02-02 17:34:00,39.9,26.4,30.21,NW,315,2.2,4.5,58,0.00,,,0.00,pywws,2013-02-02 17:34:00,
2013-02-02 17:38:00,39.7,26.2,30.22,NW,315,1.6,4.5,58,0.00,,,0.00,pywws,2013-02-02 17:38:00,
2013-02-02 17:43:00,39.7,26.6,30.22,NW,315,0.7,3.1,59,0.00,,,0.00,pywws,2013-02-02 17:43:00,
2013-02-02 17:48:00,39.6,26.4,30.22,NW,315,1.6,3.1,59,0.00,,,0.00,pywws,2013-02-02 17:48:00,
2013-02-02 17:53:00,39.6,26.8,30.22,North,0,0.7,3.1,60,0.00,,,0.00,pywws,2013-02-02 17:53:00,
2013-02-02 18:04:00,38.8,26.2,30.22,North,0,0.7,1.6,60,0.00,,,0.00,pywws,2013-02-02 18:04:00,
2013-02-02 18:09:00,38.7,26.4,30.23,North,0,0.7,2.2,61,0.00,,,0.00,pywws,2013-02-02 18:09:00,
2013-02-02 18:14:00,38.5,26.2,30.23,NW,315,1.6,3.8,61,0.00,,,0.00,pywws,2013-02-02 18:14:00,
2013-02-02 18:19:00,38.3,26.0,30.23,North,0,3.8,6.0,61,0.00,,,0.00,pywws,2013-02-02 18:19:00,
2013-02-02 18:24:00,38.1,25.9,30.23,North,0,2.2,6.0,61,0.00,,,0.00,pywws,2013-02-02 18:24:00,
2013-02-02 18:34:00,38.1,26.3,30.23,NW,315,0.7,3.1,62,0.00,,,0.00,pywws,2013-02-02 18:34:00,
2013-02-02 18:39:00,37.2,25.8,30.23,North,-999,0.0,0.7,63,0.00,,,0.00,pywws,2013-02-02 18:39:00,
2013-02-02 18:44:00,36.7,25.7,30.23,North,-999,0.0,0.7,64,0.00,,,0.00,pywws,2013-02-02 18:44:00,
2013-02-02 18:49:00,35.8,25.2,30.24,North,-999,0.0,0.7,65,0.00,,,0.00,pywws,2013-02-02 18:49:00,
2013-02-02 18:54:00,35.4,25.2,30.25,North,-999,0.0,0.7,66,0.00,,,0.00,pywws,2013-02-02 18:54:00,
2013-02-02 19:04:00,34.9,25.1,30.24,North,-999,0.0,0.7,67,0.00,,,0.00,pywws,2013-02-02 19:04:00,
2013-02-02 19:09:00,34.7,25.6,30.25,North,-999,0.0,1.6,69,0.00,,,0.00,pywws,2013-02-02 19:09:00,
2013-02-02 19:14:00,34.7,25.6,30.26,North,-999,0.0,0.0,69,0.00,,,0.00,pywws,2013-02-02 19:14:00,
2013-02-02 19:19:00,34.3,25.6,30.26,North,-999,0.0,0.0,70,0.00,,,0.00,pywws,2013-02-02 19:19:00,
2013-02-02 19:24:00,34.2,25.4,30.26,North,-999,0.0,0.0,70,0.00,,,0.00,pywws,2013-02-02 19:24:00,
2013-02-02 19:34:00,33.4,25.1,30.25,North,-999,0.0,0.0,71,0.00,,,0.00,pywws,2013-02-02 19:34:00,
2013-02-02 19:39:00,33.3,25.2,30.25,North,-999,0.0,1.6,72,0.00,,,0.00,pywws,2013-02-02 19:39:00,
2013-02-02 19:44:00,33.1,25.4,30.26,North,-999,0.0,0.0,73,0.00,,,0.00,pywws,2013-02-02 19:44:00,
2013-02-02 19:49:00,32.7,25.0,30.26,North,-999,0.0,0.0,73,0.00,,,0.00,pywws,2013-02-02 19:49:00,
2013-02-02 19:54:00,32.5,25.2,30.25,North,-999,0.0,0.0,74,0.00,,,0.00,pywws,2013-02-02 19:54:00,
2013-02-02 20:04:00,32.2,24.8,30.26,North,-999,0.0,0.0,74,0.00,,,0.00,pywws,2013-02-02 20:04:00,
2013-02-02 20:09:00,32.2,25.5,30.26,North,-999,0.0,0.7,76,0.00,,,0.00,pywws,2013-02-02 20:09:00,
2013-02-02 20:14:00,31.6,25.3,30.25,North,-999,0.0,0.0,77,0.00,,,0.00,pywws,2013-02-02 20:14:00,
2013-02-02 20:19:00,31.8,25.4,30.24,North,-999,0.0,0.0,77,0.00,,,0.00,pywws,2013-02-02 20:19:00,
2013-02-02 20:24:00,31.8,25.4,30.24,North,-999,0.0,0.0,77,0.00,,,0.00,pywws,2013-02-02 20:24:00,
2013-02-02 20:34:00,31.6,25.6,30.24,North,-999,0.0,0.0,78,0.00,,,0.00,pywws,2013-02-02 20:34:00,
2013-02-02 20:39:00,31.3,25.5,30.25,North,-999,0.0,1.6,79,0.00,,,0.00,pywws,2013-02-02 20:39:00,
2013-02-02 20:44:00,31.3,25.8,30.26,North,-999,0.0,3.1,80,0.00,,,0.00,pywws,2013-02-02 20:44:00,
2013-02-02 20:49:00,31.5,26.0,30.26,North,-999,0.0,1.6,80,0.00,,,0.00,pywws,2013-02-02 20:49:00,
2013-02-02 20:54:00,31.6,26.2,30.26,North,-999,0.0,0.7,80,0.00,,,0.00,pywws,2013-02-02 20:54:00,
2013-02-02 21:04:00,31.6,25.9,30.26,North,-999,0.0,0.7,79,0.00,,,0.00,pywws,2013-02-02 21:04:00,
2013-02-02 21:09:00,31.6,25.9,30.26,North,-999,0.0,1.6,79,0.00,,,0.00,pywws,2013-02-02 21:09:00,
2013-02-02 21:14:00,31.6,25.9,30.27,North,-999,0.0,1.6,79,0.00,,,0.00,pywws,2013-02-02 21:14:00,
2013-02-02 21:19:00,31.6,25.6,30.27,North,-999,0.0,0.7,78,0.00,,,0.00,pywws,2013-02-02 21:19:00,
2013-02-02 21:24:00,31.3,25.2,30.27,North,-999,0.0,1.6,78,0.00,,,0.00,pywws,2013-02-02 21:24:00,
2013-02-02 21:34:00,31.3,25.2,30.27,North,-999,0.0,0.7,78,0.00,,,0.00,pywws,2013-02-02 21:34:00,
2013-02-02 21:38:00,31.1,25.1,30.27,North,-999,0.0,0.0,78,0.00,,,0.00,pywws,2013-02-02 21:38:00,
2013-02-02 21:43:00,30.9,24.9,30.26,North,-999,0.0,0.0,78,0.00,,,0.00,pywws,2013-02-02 21:43:00,
2013-02-02 21:48:00,30.6,24.5,30.27,North,-999,0.0,0.0,78,0.00,,,0.00,pywws,2013-02-02 21:48:00,
2013-02-02 21:53:00,30.6,24.5,30.27,North,-999,0.0,0.7,78,0.00,,,0.00,pywws,2013-02-02 21:53:00,
2013-02-02 22:04:00,30.6,24.8,30.27,North,-999,0.0,0.7,79,0.00,,,0.00,pywws,2013-02-02 22:04:00,
2013-02-02 22:09:00,30.4,24.7,30.26,North,-999,0.0,0.0,79,0.00,,,0.00,pywws,2013-02-02 22:09:00,
2013-02-02 22:14:00,30.0,24.3,30.26,North,-999,0.0,0.0,79,0.00,,,0.00,pywws,2013-02-02 22:14:00,
2013-02-02 22:19:00,29.8,24.1,30.26,North,-999,0.0,0.0,79,0.00,,,0.00,pywws,2013-02-02 22:19:00,
2013-02-02 22:24:00,29.5,23.8,30.25,North,-999,0.0,0.0,79,0.00,,,0.00,pywws,2013-02-02 22:24:00,
2013-02-02 22:34:00,29.3,23.9,30.25,North,-999,0.0,0.7,80,0.00,,,0.00,pywws,2013-02-02 22:34:00,
2013-02-02 22:38:00,29.3,23.9,30.26,North,-999,0.0,0.0,80,0.00,,,0.00,pywws,2013-02-02 22:38:00,
2013-02-02 22:43:00,29.3,23.9,30.26,North,-999,0.0,0.0,80,0.00,,,0.00,pywws,2013-02-02 22:43:00,
2013-02-02 22:48:00,29.1,24.0,30.26,North,-999,0.0,0.0,81,0.00,,,0.00,pywws,2013-02-02 22:48:00,
2013-02-02 22:53:00,29.3,24.5,30.26,North,-999,0.0,0.0,82,0.00,,,0.00,pywws,2013-02-02 22:53:00,
2013-02-02 23:04:00,29.5,24.4,30.26,North,-999,0.0,0.0,81,0.00,,,0.00,pywws,2013-02-02 23:04:00,
2013-02-02 23:09:00,29.1,24.0,30.27,North,-999,0.0,0.0,81,0.00,,,0.00,pywws,2013-02-02 23:09:00,
2013-02-02 23:14:00,28.6,23.8,30.27,North,-999,0.0,0.0,82,0.00,,,0.00,pywws,2013-02-02 23:14:00,
2013-02-02 23:19:00,28.4,23.6,30.27,North,-999,0.0,0.0,82,0.00,,,0.00,pywws,2013-02-02 23:19:00,
2013-02-02 23:24:00,28.4,23.6,30.27,North,-999,0.0,0.0,82,0.00,,,0.00,pywws,2013-02-02 23:24:00,
2013-02-02 23:34:00,28.4,23.9,30.28,North,-999,0.0,0.0,83,0.00,,,0.00,pywws,2013-02-02 23:34:00,
2013-02-02 23:39:00,28.4,23.9,30.28,North,-999,0.0,0.0,83,0.00,,,0.00,pywws,2013-02-02 23:39:00,
2013-02-02 23:44:00,28.4,23.9,30.28,North,-999,0.0,0.0,83,0.00,,,0.00,pywws,2013-02-02 23:44:00,
2013-02-02 23:49:00,28.2,23.7,30.28,North,-999,0.0,0.0,83,0.00,,,0.00,pywws,2013-02-02 23:49:00,
2013-02-02 23:54:00,27.9,23.4,30.28,North,-999,0.0,0.0,83,0.00,,,0.00,pywws,2013-02-02 23:54:00,